Topeka, KS

3:49 PM CST on January 16, 2018 (GMT -0600)
Billard Municipal

Weather History for KTOP - October, 2010

Change the Weather History Date:

Saturday, October 23, 2010

  Actual Average Record
Temperature  
Mean Temperature 70 °F 54 °F  
Max Temperature 78 °F 66 °F 92 °F (1939)
Min Temperature 61 °F 43 °F 25 °F (1966)
Degree Days  
Heating Degree Days 0 11  
Month to date heating degree days 106 188  
Since 1 July heating degree days 130 255  
Cooling Degree Days 5 0  
Month to date cooling degree days 21 25  
Year to date cooling degree days 1852 1418  
Growing Degree Days 21 (Base 50)    
Moisture  
Dew Point 61 °F    
Average Humidity 71    
Maximum Humidity 87    
Minimum Humidity 54    
Precipitation  
Precipitation 0.34 in 0.09 in 1.98 in (1957)
Month to date precipitation 1.10 2.35  
Year to date precipitation 34.84 32.58  
Snow  
Snow 0.00 in 0.00 in 2.40 in (1908)
Month to date snowfall 0.0 0.2  
Year to date snowfall 21.5 11.5  
Since 1 July snowfall 0.0 0.2  
Snow Depth 0.00 in    
Sea Level Pressure  
Sea Level Pressure 29.77 in    
Wind  
Wind Speed 12 mph (South)    
Max Wind Speed 24 mph    
Max Gust Speed 35 mph    
Visibility 8 miles    
Events Rain , Thunderstorm    
T = Trace of Precipitation, MM = Missing Value Source: NWS Daily Summary

Daily Weather History Graph

Daily Weather History Graph

Search for Another Location

Airport or City:

Trip Planner

Search our weather history database for the weather conditions in past years. The results will help you decide how hot, cold, wet, or windy it might be!

Date:

Astronomy

Oct. 23, 2010 Rise Set
Actual Time 7:40 AM CDT 6:32 PM CDT
Civil Twilight 7:13 AM CDT 6:59 PM CDT
Nautical Twilight 6:41 AM CDT 7:31 PM CDT
Astronomical Twilight 6:10 AM CDT 8:02 PM CDT
Moon 6:37 PM CDT (10/23) 8:20 AM CDT (10/23)
Length of Visible Light 11h 46m
Length of Day
10h 52m
Full, 100% of the Moon is Illuminated
Oct 23
Full
Oct 30
Last Quarter
Nov 5
New
Nov 13
First Quarter
Nov 21
Full

Hourly Weather History & Observations

Time (CDT) Temp. Dew Point Humidity Pressure Visibility Wind Dir Wind Speed Gust Speed Precip Events Conditions
12:53 AM 66.9 °F 62.1 °F 84% 29.80 in 9.0 mi SSE 12.7 mph - N/A Thunderstorm Partly Cloudy
1:12 AM 68.0 °F 60.8 °F 78% 29.82 in 10.0 mi South 11.5 mph - N/A   Scattered Clouds
1:20 AM 68.0 °F 62.6 °F 83% 29.81 in 9.0 mi South 13.8 mph 24.2 mph N/A Thunderstorm Scattered Clouds
1:44 AM 66.2 °F 62.6 °F 88% 29.81 in 2.5 mi South 19.6 mph 31.1 mph 0.04 in Rain , Thunderstorm Heavy Thunderstorms and Rain
1:49 AM 66.2 °F 62.6 °F 88% 29.80 in 3.0 mi South 12.7 mph 31.1 mph 0.05 in Rain , Thunderstorm Thunderstorms and Rain
1:53 AM 66.0 °F 62.1 °F 87% 29.79 in 6.0 mi SSW 8.1 mph 25.3 mph 0.06 in Rain , Thunderstorm Light Thunderstorms and Rain
2:20 AM 66.2 °F 62.6 °F 88% 29.81 in 2.5 mi SSE 13.8 mph - 0.06 in Rain , Thunderstorm Heavy Thunderstorms and Rain
2:32 AM 66.2 °F 62.6 °F 88% 29.82 in 5.0 mi South 13.8 mph 23.0 mph 0.12 in Rain , Thunderstorm Rain
2:43 AM 66.2 °F 62.6 °F 88% 29.82 in 8.0 mi South 11.5 mph 18.4 mph 0.13 in Thunderstorm Overcast
2:53 AM 66.9 °F 63.0 °F 87% 29.80 in 5.0 mi South 9.2 mph - 0.13 in Rain , Thunderstorm Light Rain
3:04 AM 66.2 °F 62.6 °F 88% 29.83 in 4.0 mi West 6.9 mph - 0.03 in Rain , Thunderstorm Light Rain
3:21 AM 66.2 °F 62.6 °F 88% 29.81 in 5.0 mi SSE 10.4 mph - 0.04 in Rain Light Rain
3:25 AM 66.2 °F 62.6 °F 88% 29.80 in 5.0 mi SSE 11.5 mph - 0.05 in Rain Light Rain
3:45 AM 66.2 °F 62.6 °F 88% 29.81 in 3.0 mi South 8.1 mph - 0.09 in Rain , Thunderstorm Heavy Rain
3:53 AM 66.9 °F 63.0 °F 87% 29.78 in 4.0 mi South 10.4 mph - 0.15 in Rain , Thunderstorm Light Thunderstorms and Rain
4:28 AM 66.2 °F 62.6 °F 88% 29.80 in 9.0 mi South 9.2 mph - 0.00 in Thunderstorm Mostly Cloudy
4:30 AM 68.0 °F 62.6 °F 83% 29.80 in 9.0 mi South 10.4 mph - N/A   Mostly Cloudy
4:53 AM 66.9 °F 63.0 °F 87% 29.78 in 7.0 mi South 6.9 mph - 0.00 in   Mostly Cloudy
5:20 AM 68.0 °F 62.6 °F 83% 29.80 in 8.0 mi South 5.8 mph - N/A   Overcast
5:43 AM 66.2 °F 62.6 °F 88% 29.79 in 7.0 mi South 9.2 mph - N/A   Scattered Clouds
5:53 AM 66.9 °F 63.0 °F 87% 29.78 in 8.0 mi South 9.2 mph - N/A   Clear
6:53 AM 68.0 °F 63.0 °F 84% 29.78 in 8.0 mi South 5.8 mph - N/A   Overcast
7:01 AM 68.0 °F 62.6 °F 83% 29.80 in 9.0 mi South 8.1 mph - N/A   Overcast
7:53 AM 69.1 °F 63.0 °F 81% 29.78 in 8.0 mi South 6.9 mph 17.3 mph N/A   Overcast
8:53 AM 70.0 °F 64.0 °F 81% 29.78 in 9.0 mi South 8.1 mph - N/A   Mostly Cloudy
9:53 AM 71.1 °F 64.0 °F 78% 29.77 in 10.0 mi South 13.8 mph 23.0 mph N/A   Overcast
10:53 AM 73.9 °F 64.0 °F 71% 29.75 in 10.0 mi South 12.7 mph 21.9 mph N/A   Scattered Clouds
11:53 AM 75.9 °F 64.9 °F 69% 29.74 in 10.0 mi South 13.8 mph 19.6 mph N/A   Scattered Clouds
12:53 PM 77.0 °F 63.0 °F 62% 29.73 in 10.0 mi South 18.4 mph 26.5 mph N/A   Mostly Cloudy
1:53 PM 78.1 °F 60.1 °F 54% 29.70 in 10.0 mi South 16.1 mph 27.6 mph N/A   Partly Cloudy
2:53 PM 78.1 °F 60.1 °F 54% 29.70 in 10.0 mi South 19.6 mph 28.8 mph N/A   Partly Cloudy
3:53 PM 77.0 °F 62.1 °F 60% 29.68 in 10.0 mi South 16.1 mph 27.6 mph N/A   Partly Cloudy
4:53 PM 75.0 °F 61.0 °F 62% 29.69 in 10.0 mi South 16.1 mph 26.5 mph N/A   Clear
5:53 PM 72.0 °F 55.0 °F 55% 29.69 in 10.0 mi South 17.3 mph 26.5 mph N/A   Clear
6:53 PM 70.0 °F 54.0 °F 57% 29.70 in 10.0 mi South 15.0 mph 23.0 mph N/A   Clear
7:53 PM 66.9 °F 55.0 °F 66% 29.71 in 10.0 mi SSE 13.8 mph - N/A   Clear
8:53 PM 66.0 °F 55.9 °F 70% 29.71 in 10.0 mi South 11.5 mph - N/A   Clear
9:53 PM 64.0 °F 55.0 °F 73% 29.70 in 10.0 mi SSE 15.0 mph - N/A   Clear
10:53 PM 64.0 °F 54.0 °F 70% 29.73 in 10.0 mi South 15.0 mph 24.2 mph N/A   Clear
11:53 PM 62.1 °F 54.0 °F 75% 29.72 in 10.0 mi South 9.2 mph - N/A   Clear